Change the Weather History Date:

Friday, September 27, 2013

  Actual Average Record
Temperature  
Mean Temperature 67 °F 59 °F  
Max Temperature 82 °F 71 °F 89 °F (1954)
Min Temperature 51 °F 47 °F 29 °F (1942)
Degree Days  
Heating Degree Days 0 7  
Month to date heating degree days 62 92  
Since 1 July heating degree days 73 106  
Cooling Degree Days 2 1  
Month to date cooling degree days 121 81  
Year to date cooling degree days 870 808  
Growing Degree Days 16 (Base 50)    
Moisture  
Dew Point 51 °F    
Average Humidity 61    
Maximum Humidity 89    
Minimum Humidity 33    
Precipitation  
Precipitation 0.00 in 0.10 in 2.00 in (1999)
Month to date precipitation 1.54 3.05  
Year to date precipitation 33.54 28.71  
Snow  
Snow 0.00 in 0.00 in 0.00 in ()
Month to date snowfall 0.0 0.0  
Since 1 July snowfall 0.0 0.0  
Since 1 September snowfall 0.0 0.0  
Snow Depth 0.00 in    
Sea Level Pressure  
Sea Level Pressure 30.10 in    
Wind  
Wind Speed 8 mph (SE)    
Max Wind Speed 20 mph    
Max Gust Speed 22 mph    
Visibility 9 miles    
Events      
T = Trace of Precipitation, MM = Missing Value Source: NWS Daily Summary

Daily Weather History Graph

Daily Weather History Graph

Search for Another Location

Airport or City:

Trip Planner

Search our weather history database for the weather conditions in past years. The results will help you decide how hot, cold, wet, or windy it might be!

Date:

Astronomy

Sep. 27, 2013 Rise Set
Actual Time 6:49 AM CDT 6:44 PM CDT
Civil Twilight 6:21 AM CDT 7:12 PM CDT
Nautical Twilight 5:48 AM CDT 7:44 PM CDT
Astronomical Twilight 5:15 AM CDT 8:17 PM CDT
Moon No Moon Rise 2:28 PM CDT (9/27)
Length of Visible Light 12h 50m
Length of Day
11h 55m
Last Quarter, 45% of the Moon is Illuminated
Sep 27
Last Quarter
Oct 4
New
Oct 11
First Quarter
Oct 18
Full
Oct 26
Last Quarter

Hourly Weather History & Observations

Time (CDT) Temp. Dew Point Humidity Pressure Visibility Wind Dir Wind Speed Gust Speed Precip Events Conditions
12:54 AM 55.9 °F 52.0 °F 87% 30.09 in 10.0 mi SE 4.6 mph - N/A   Clear
1:54 AM 54.0 °F 50.0 °F 86% 30.11 in 8.0 mi Calm Calm - N/A   Clear
2:54 AM 54.0 °F 50.0 °F 86% 30.12 in 8.0 mi Calm Calm - N/A   Clear
3:54 AM 55.0 °F 51.1 °F 86% 30.12 in 8.0 mi Calm Calm - N/A   Clear
4:54 AM 55.0 °F 51.1 °F 86% 30.12 in 6.0 mi Calm Calm - N/A   Clear
5:54 AM 54.0 °F 50.0 °F 86% 30.13 in 6.0 mi Calm Calm - N/A   Clear
6:54 AM 51.1 °F 48.9 °F 92% 30.16 in 4.0 mi Calm Calm - N/A   Scattered Clouds
7:54 AM 55.9 °F 51.1 °F 84% 30.17 in 4.0 mi Calm Calm - N/A   Haze
8:54 AM 61.0 °F 53.1 °F 75% 30.16 in 10.0 mi SE 5.8 mph - N/A   Scattered Clouds
9:54 AM 68.0 °F 55.0 °F 63% 30.17 in 10.0 mi SE 3.5 mph - N/A   Scattered Clouds
10:54 AM 73.9 °F 55.0 °F 52% 30.15 in 10.0 mi SSE 9.2 mph - N/A   Partly Cloudy
11:54 AM 78.1 °F 53.1 °F 42% 30.13 in 10.0 mi South 16.1 mph - N/A   Partly Cloudy
12:54 PM 79.0 °F 52.0 °F 39% 30.12 in 10.0 mi SSE 13.8 mph 18.4 mph N/A   Partly Cloudy
1:54 PM 80.1 °F 52.0 °F 38% 30.10 in 10.0 mi SSE 13.8 mph - N/A   Partly Cloudy
2:54 PM 81.0 °F 51.1 °F 35% 30.08 in 10.0 mi SSE 17.3 mph 21.9 mph N/A   Partly Cloudy
3:54 PM 81.0 °F 48.9 °F 33% 30.06 in 10.0 mi SSE 18.4 mph 21.9 mph N/A   Clear
4:54 PM 80.1 °F 52.0 °F 38% 30.05 in 10.0 mi SSE 15.0 mph - N/A   Clear
5:54 PM 78.1 °F 48.9 °F 36% 30.05 in 10.0 mi SSE 10.4 mph - N/A   Clear
6:54 PM 73.0 °F 50.0 °F 44% 30.05 in 10.0 mi SE 5.8 mph - N/A   Clear
7:54 PM 68.0 °F 51.1 °F 55% 30.06 in 10.0 mi ESE 5.8 mph - N/A   Clear
8:54 PM 66.0 °F 52.0 °F 60% 30.07 in 10.0 mi ESE 9.2 mph - N/A   Clear
9:54 PM 64.9 °F 51.1 °F 61% 30.07 in 10.0 mi SE 10.4 mph - N/A   Clear
10:54 PM 63.0 °F 48.9 °F 60% 30.07 in 10.0 mi SSE 9.2 mph - N/A   Clear
11:54 PM 63.0 °F 48.0 °F 58% 30.07 in 10.0 mi SE 9.2 mph - N/A   Clear